Durant, OK

2:59 AM CST on December 07, 2019 (GMT -0600)
Eaker

Weather History for KDUA - October, 2019

Change the Weather History Date:

Friday, October 4, 2019

  Actual Average (KMLC) Record (KMLC)
Temperature  
Mean Temperature 76 °F -  
Max Temperature 87 °F 80 °F 98 °F (1963)
Min Temperature 64 °F 54 °F 37 °F (1975)
Cooling Degree Days 10    
Growing Degree Days 26 (Base 50)    
Moisture  
Dew Point 64 °F    
Average Humidity 72    
Maximum Humidity 88    
Minimum Humidity 49    
Precipitation  
Precipitation 0.00 in - - ()
Sea Level Pressure  
Sea Level Pressure 30.13 in    
Wind  
Wind Speed 8 mph (NE)    
Max Wind Speed 14 mph    
Max Gust Speed -    
Visibility 4 miles    
Events Rain    
Averages and records for this station are not official NWS values.
T = Trace of Precipitation, MM = Missing Value Source: NWS Daily Summary

Daily Weather History Graph

Daily Weather History Graph

Search for Another Location

Airport or City:

Astronomy

Oct. 04, 2019 Rise Set
Actual Time 7:22 AM CDT 7:06 PM CDT
Civil Twilight 6:57 AM CDT 7:30 PM CDT
Nautical Twilight 6:28 AM CDT 7:59 PM CDT
Astronomical Twilight 5:59 AM CDT 8:28 PM CDT
Moon 1:40 PM CDT (10/4) 11:50 PM CDT (10/4)
Length of Visible Light 12h 33m
Length of Day
11h 43m
Waxing Crescent, 40% of the Moon is Illuminated
Oct 4
Waxing Crescent
Oct 5
First Quarter
Oct 13
Full
Oct 21
Last Quarter
Oct 27
New

Hourly Weather History & Observations

Time (CDT) Temp. Heat Index Dew Point Humidity Pressure Visibility Wind Dir Wind Speed Gust Speed Precip Events Conditions
12:14 AM 75.2 °F - 66.2 °F 73% 30.14 in 0.8 mi NNE 12.7 mph - N/A   Drizzle
12:36 AM 73.4 °F - 64.4 °F 73% 30.14 in 0.8 mi NNE 13.8 mph - N/A   Light Drizzle
12:56 AM 73.4 °F - 64.4 °F 73% 30.14 in 0.8 mi North 6.9 mph - N/A   Haze
1:15 AM 71.6 °F - 62.6 °F 73% 30.14 in 0.5 mi NNE 12.7 mph - N/A   Haze
1:36 AM 71.6 °F - 62.6 °F 73% 30.15 in 0.5 mi NE 5.8 mph - N/A   Drizzle
1:55 AM 69.8 °F - 62.6 °F 78% 30.15 in 0.8 mi NNE 10.4 mph - N/A   Drizzle
2:16 AM 69.8 °F - 62.6 °F 78% 30.15 in 0.5 mi North 8.1 mph - N/A   Light Drizzle
2:35 AM 68.0 °F - 60.8 °F 78% 30.16 in 0.5 mi NNE 6.9 mph - N/A   Light Drizzle
2:55 AM 68.0 °F - 60.8 °F 78% 30.15 in 0.8 mi NNE 4.6 mph - N/A   Light Drizzle
3:14 AM 66.2 °F - 60.8 °F 83% 30.15 in 0.8 mi North 6.9 mph - N/A   Haze
3:54 AM 66.2 °F - 59.0 °F 78% 30.14 in 1.0 mi North 10.4 mph - N/A   Heavy Drizzle
4:14 AM 64.4 °F - 60.8 °F 88% 30.14 in 0.8 mi North 10.4 mph - N/A   Heavy Drizzle
4:55 AM 64.4 °F - 59.0 °F 83% 30.15 in 0.5 mi NNE 10.4 mph - N/A   Light Drizzle
5:16 AM 64.4 °F - 59.0 °F 83% 30.15 in 0.8 mi North 6.9 mph - N/A   Light Drizzle
5:34 AM 64.4 °F - 59.0 °F 83% 30.15 in 0.5 mi NNE 8.1 mph - N/A   Haze
5:55 AM 64.4 °F - 59.0 °F 83% 30.15 in 0.5 mi NNE 6.9 mph - N/A   Unknown
6:15 AM 64.4 °F - 59.0 °F 83% 30.15 in 0.5 mi North 5.8 mph - N/A   Haze
6:34 AM 64.4 °F - 59.0 °F 83% 30.15 in 1.5 mi NNW 6.9 mph - N/A   Haze
6:54 AM 64.4 °F - 59.0 °F 83% 30.16 in 1.5 mi NNW 6.9 mph - N/A   Haze
7:15 AM 64.4 °F - 59.0 °F 83% 30.17 in 1.0 mi North 4.6 mph - N/A   Haze
8:55 AM 66.2 °F - 60.8 °F 83% 30.18 in 1.0 mi NNW 5.8 mph - N/A   Haze
9:16 AM 68.0 °F - 60.8 °F 78% 30.18 in 1.0 mi WNW 5.8 mph - N/A   Haze
9:34 AM 69.8 °F - 60.8 °F 73% 30.19 in 1.5 mi NNW 4.6 mph - N/A   Haze
10:16 AM 71.6 °F - 62.6 °F 73% 30.19 in 1.0 mi Calm Calm - N/A   Haze
10:36 AM 73.4 °F - 62.6 °F 69% 30.19 in 0.8 mi Calm Calm - N/A   Haze
11:56 AM 82.4 °F 84.6 °F 66.2 °F 58% 30.17 in 1.0 mi ENE 5.8 mph - N/A   Haze
12:14 PM 82.4 °F 84.6 °F 66.2 °F 58% 30.17 in 0.8 mi East 3.5 mph - N/A   Haze
1:14 PM 86.0 °F 89.4 °F 68.0 °F 55% 30.14 in 0.8 mi Calm Calm - N/A   Haze
2:17 PM 87.8 °F 91.4 °F 68.0 °F 52% 30.11 in 0.8 mi ENE 4.6 mph - N/A Rain Light Rain
2:34 PM 87.8 °F 91.4 °F 68.0 °F 52% 30.10 in 1.0 mi NE 3.5 mph - N/A   Haze
2:54 PM 86.0 °F 90.4 °F 69.8 °F 58% 30.10 in 1.0 mi ENE 10.4 mph - N/A   Drizzle
3:34 PM 87.8 °F 92.6 °F 69.8 °F 55% 30.09 in 3.0 mi East 9.2 mph - N/A   Haze
3:56 PM 87.8 °F 92.6 °F 69.8 °F 55% 30.09 in 7.0 mi ESE 8.1 mph - N/A   Mostly Cloudy
5:35 PM 87.8 °F 90.4 °F 66.2 °F 49% 30.07 in 10.0 mi East 6.9 mph - N/A   Clear
5:54 PM 87.8 °F 92.6 °F 69.8 °F 55% 30.07 in 10.0 mi East 10.4 mph - N/A   Scattered Clouds
6:15 PM 84.2 °F 88.4 °F 69.8 °F 62% 30.07 in 10.0 mi East 8.1 mph - N/A   Scattered Clouds
6:36 PM 84.2 °F 88.4 °F 69.8 °F 62% 30.07 in 10.0 mi East 9.2 mph - N/A   Clear
6:56 PM 82.4 °F 86.3 °F 69.8 °F 66% 30.08 in 10.0 mi East 9.2 mph - N/A   Clear
7:16 PM 80.6 °F 83.9 °F 69.8 °F 70% 30.08 in 10.0 mi East 4.6 mph - N/A   Clear
7:34 PM 78.8 °F - 69.8 °F 74% 30.09 in 10.0 mi East 4.6 mph - N/A   Clear
7:54 PM 77.0 °F - 69.8 °F 78% 30.09 in 10.0 mi East 8.1 mph - N/A   Clear
8:16 PM 77.0 °F - 66.2 °F 69% 30.09 in 10.0 mi ESE 5.8 mph - N/A   Clear
9:57 PM 73.4 °F - 66.2 °F 78% 30.10 in 10.0 mi East 5.8 mph - N/A   Clear
10:37 PM 73.4 °F - 66.2 °F 78% 30.10 in 10.0 mi East 3.5 mph - N/A   Clear
10:55 PM 73.4 °F - 66.2 °F 78% 30.09 in 10.0 mi East 4.6 mph - N/A   Clear
11:14 PM 71.6 °F - 66.2 °F 83% 30.09 in 10.0 mi ESE 4.6 mph - N/A   Clear
11:54 PM 71.6 °F - 66.2 °F 83% 30.08 in 7.0 mi ESE 4.6 mph - N/A   Clear